IBADAL6 Weather Reports


time (UTC)temp
C
wind
direction
speed
KPH
gust
KPH
rain 1hr
cm
rain 24hr
cm
rain mn
cm
humidity
%
barometer
mb
20260510091557 21 252 4.8 22.5 0.00 1.30 0.00 67 1013.0
20260510090101 20 238 6.4 22.5 0.00 1.30 0.00 69 1013.1
20260510084554 20 233 12.9 20.9 0.00 1.30 0.00 70 1013.1
20260510083043 20 215 9.7 16.1 0.00 1.30 0.00 71 1013.3
20260510081545 19 238 8.0 17.7 0.00 1.30 0.00 72 1013.1
20260510080042 18 246 9.7 17.7 0.00 1.30 0.00 73 1013.0
20260510074534 18 226 8.0 14.5 0.00 1.32 0.00 74 1012.8
20260510073038 18 257 1.6 9.7 0.00 1.32 0.00 77 1012.8
20260510071625 17 285 1.6 8.0 0.00 1.32 0.00 78 1012.8
20260510070026 16 244 0.0 9.7 0.00 1.32 0.00 80 1012.7
20260510064545 16 274 0.0 9.7 0.00 1.32 0.00 82 1012.7
20260510063022 15 285 1.6 9.7 0.00 1.32 0.00 82 1012.6
20260510061530 15 284 0.0 11.3 0.00 1.32 0.00 83 1012.6
20260510060028 15 258 0.0 9.7 0.00 1.32 0.00 82 1012.5
20260510054516 14 282 1.6 6.4 0.00 1.32 0.00 83 1012.5
20260510053014 14 264 1.6 4.8 0.00 1.32 0.00 84 1012.5
20260510051513 13 264 1.6 8.0 0.00 1.32 0.00 85 1012.4
20260510050017 13 264 0.0 8.0 0.00 1.32 0.00 85 1012.3
20260510044513 13 288 1.6 11.3 0.00 1.32 0.00 85 1012.3
20260510043010 13 291 3.2 9.7 0.00 1.32 0.00 85 1012.5
20260510041509 13 274 1.6 4.8 0.00 1.32 0.00 85 1012.5
20260510040009 13 297 0.0 6.4 0.00 1.32 0.00 85 1012.5
20260510034507 13 291 1.6 8.0 0.00 1.35 0.00 85 1012.4
20260510033005 13 290 1.6 4.8 0.00 1.35 0.00 85 1012.4
20260510031505 13 311 1.6 4.8 0.00 1.35 0.00 85 1012.6
20260510030004 13 271 0.0 8.0 0.00 1.35 0.00 85 1012.6
20260510024501 13 305 4.8 8.0 0.00 1.35 0.00 85 1012.8
20260510023001 13 310 1.6 6.4 0.00 1.35 0.00 86 1013.0
20260510021559 13 300 3.2 8.0 0.00 1.35 0.00 86 1013.0
20260510020059 13 309 4.8 11.3 0.00 1.35 0.00 86 1012.7
20260510014600 13 303 0.0 8.0 0.00 1.35 0.00 86 1012.7
20260510013102 14 288 4.8 8.0 0.00 1.35 0.00 86 1012.6
20260510011557 14 289 1.6 8.0 0.00 1.35 0.00 86 1012.7
20260510004553 14 287 0.0 6.4 0.00 1.37 0.00 86 1012.9
20260510003058 14 307 4.8 8.0 0.00 1.37 0.00 87 1013.1
20260510001551 14 278 0.0 3.2 0.00 1.37 0.00 87 1013.1
20260510000048 14 284 0.0 9.7 0.00 1.37 0.00 87 1013.5
20260509234601 14 281 1.6 6.4 0.00 1.37 0.00 87 1013.6
20260509233051 15 285 0.0 9.7 0.00 1.37 0.00 87 1013.7
20260509231601 15 294 6.4 16.1 0.00 1.37 0.00 87 1013.7
20260509230040 15 292 3.2 11.3 0.00 1.37 0.00 87 1013.7
20260509224538 15 297 3.2 8.0 0.00 1.37 0.00 87 1013.6
20260509223038 15 304 3.2 8.0 0.00 1.37 0.00 86 1013.7
20260509221535 15 319 1.6 6.4 0.00 1.37 0.00 86 1013.8
20260509220034 15 311 3.2 6.4 0.00 1.37 0.00 86 1013.8
20260509214529 15 330 1.6 4.8 0.00 1.37 1.37 87 1013.7
20260509213029 15 351 0.0 4.8 0.00 1.37 1.37 87 1013.6
20260509211528 15 316 0.0 4.8 0.00 1.37 1.37 87 1013.7
20260509210030 15 264 0.0 0.0 0.00 1.37 1.37 87 1013.7
20260509204530 15 236 0.0 0.0 0.00 1.37 1.37 88 1013.5
20260509203034 15 236 0.0 0.0 0.00 1.37 1.37 89 1013.3
20260509201525 15 236 0.0 0.0 0.00 1.37 1.37 89 1012.9
20260509200025 15 223 0.0 0.0 0.00 1.37 1.37 90 1012.9
20260509194524 15 223 0.0 0.0 0.00 1.37 1.37 90 1012.7
20260509193025 15 223 0.0 0.0 0.00 1.37 1.37 90 1012.5
20260509191524 15 223 0.0 6.4 0.00 1.37 1.37 90 1012.4
20260509190025 15 228 0.0 4.8 0.03 1.37 1.37 90 1012.1
20260509184529 15 228 0.0 3.2 0.03 1.37 1.37 90 1011.7
20260509183029 15 226 1.6 4.8 0.03 1.37 1.37 90 1011.4
20260509181520 15 295 0.0 3.2 0.03 1.37 1.37 90 1011.3
20260509180021 14 332 0.0 6.4 0.03 1.35 1.35 90 1011.0
20260509174617 14 311 0.0 1.6 0.05 1.35 1.35 90 1010.9
20260509173025 14 22 0.0 11.3 0.15 1.35 1.35 90 1011.0
20260509171525 14 32 6.4 14.5 0.33 1.35 1.35 90 1010.8
20260509170015 14 46 8.0 22.5 0.51 1.32 1.32 90 1010.8
20260509164513 14 346 9.7 17.7 0.61 1.27 1.27 90 1011.9
20260509163019 14 127 0.0 6.4 0.61 1.17 1.17 89 1012.7
20260509161517 14 145 1.6 8.0 0.46 0.99 0.99 89 1013.2
20260509160010 14 134 0.0 1.6 0.30 0.79 0.79 87 1013.7
20260509154507 15 139 6.4 16.1 0.18 0.64 0.64 84 1014.0
20260509153015 15 141 6.4 16.1 0.28 0.58 0.58 85 1013.2
20260509151503 15 134 12.9 29.0 0.33 0.51 0.51 85 1012.7
20260509150001 16 53 9.7 24.1 0.33 0.51 0.51 88 1010.1
20260509144603 16 295 14.5 30.6 0.41 0.46 0.46 87 1010.3
20260509143105 16 67 14.5 30.6 0.23 0.30 0.30 85 1011.2
20260509141553 16 109 16.1 27.4 0.15 0.20 0.20 85 1012.6
20260509140058 17 96 9.7 17.7 0.10 0.15 0.15 84 1013.4
20260509134548 17 109 4.8 17.7 0.00 0.05 0.05 82 1013.7
20260509133058 17 73 9.7 20.9 0.00 0.05 0.05 80 1013.5
20260509131547 17 72 1.6 12.9 0.00 0.05 0.05 81 1012.9
20260509130053 17 87 8.0 22.5 0.00 0.05 0.05 82 1012.0
20260509124553 17 72 9.7 20.9 0.00 0.05 0.05 80 1012.1
20260509123043 17 134 8.0 22.5 0.00 0.05 0.05 81 1012.3
20260509121551 17 141 11.3 20.9 0.00 0.05 0.05 80 1012.7
20260509120038 17 128 9.7 19.3 0.00 0.05 0.05 80 1013.4
20260509114551 17 124 9.7 19.3 0.00 0.05 0.05 81 1014.1
20260509111534 17 68 9.7 20.9 0.00 0.05 0.05 83 1014.7
20260509110033 18 131 11.3 22.5 0.00 0.05 0.05 81 1014.3
20260509104534 18 99 11.3 22.5 0.00 0.05 0.05 80 1014.3
20260509103030 18 44 8.0 20.9 0.00 0.05 0.05 80 1014.5
20260509101530 18 120 9.7 29.0 0.00 0.05 0.05 82 1014.6
20260509100029 18 109 12.9 25.7 0.00 0.05 0.05 80 1014.2
20260509094531 18 80 11.3 24.1 0.00 0.05 0.05 81 1014.2
20260509093027 18 63 9.7 19.3 0.00 0.05 0.05 81 1013.9